[[{"header":{"parameterUnit":"m.s-1","parameterCategory":1,"la1":30.2992,"la2":30.254,"lo1":-89.0895,"lo2":-89.0443,"dy":0.0025,"dx":0.0025,"nx":19,"ny":19,"refTime":"2026-05-05T09:00:00:Z","depth":0,"parameterNumber":2,"parameterNumberName":"U-component_of_WINDS"},"data":[0,0,0,-1.1151,-1.1151,-1.1151,-1.1151,-1.1156,-1.1156,0,0,0,0,0,0,0,0,0,0,0,-1.1153,-1.1153,-1.1151,-1.1151,-1.1151,-1.1151,-1.1156,-1.1156,0,0,0,0,0,0,0,0,0,0,0,-1.1153,-1.1153,-1.1153,-1.1151,-1.1151,-1.1151,-1.1155,-1.1154,0,0,0,0,0,0,0,0,0,0,-1.1153,-1.1157,-1.1153,-1.1153,-1.1151,-1.1151,-1.1151,-1.1154,-1.1154,-1.1157,0,-1.116,0,-1.1158,-1.1156,-1.1156,0,0,0,-1.1149,-1.1157,-1.1155,-1.1153,-1.1151,-1.1151,-1.115,-1.1154,-1.1154,-1.1157,-1.116,-1.1161,-1.1158,-1.1156,-1.1156,-1.1181,-1.1181,0,0,-1.1149,-1.1154,-1.1155,-1.1155,-1.1155,-1.115,-1.115,-1.1154,-1.1157,-1.116,-1.1161,-1.1158,-1.1156,-1.1156,-1.118,-1.1181,0,0,0,-1.115,-1.1154,-1.1152,-1.1155,-1.1155,-1.115,-1.1151,-1.1157,-1.1156,-1.1161,-1.1158,-1.1156,-1.1156,-1.118,-1.118,-1.1195,0,0,0,-1.115,-1.1155,-1.1152,-1.1155,-1.1155,-1.1156,-1.1154,-1.1156,-1.1156,-1.1158,-1.1156,-1.1156,-1.118,-1.118,-1.1194,-1.12,0,0,0,-1.1152,-1.1155,-1.1156,-1.1156,-1.1156,-1.1156,-1.1155,-1.1156,-1.1155,-1.1156,-1.1157,-1.118,-1.118,-1.1193,-1.1199,-1.1208,0,0,0,-1.1156,-1.1169,-1.1156,-1.117,-1.1156,-1.1165,-1.1155,-1.1161,-1.1164,-1.1156,-1.118,-1.118,-1.1193,-1.1198,-1.1207,-1.1216,-1.122,0,0,-1.1175,-1.1171,-1.1179,-1.1168,-1.118,-1.1165,-1.1179,-1.1177,-1.1172,-1.1178,-1.1179,-1.1194,-1.1199,-1.1208,-1.1244,-1.1248,0,0,0,-1.1187,-1.1192,-1.1195,-1.1198,-1.1196,-1.1196,-1.1191,-1.119,-1.1195,-1.1176,-1.12,-1.1203,-1.1208,-1.1212,-1.1215,-1.1218,-1.1183,-1.1183,-1.1183,-1.1221,-1.1214,-1.1227,-1.1221,-1.1224,-1.1219,-1.1221,-1.1219,-1.1212,-1.1218,-1.1219,-1.1242,-1.1246,-1.1249,-1.1253,-1.1224,-1.1224,-1.1224,-1.1224,-1.1248,-1.1254,-1.1245,-1.1253,-1.1247,-1.1254,-1.125,-1.1245,-1.1251,-1.124,-1.1244,-1.1232,-1.1253,-1.1256,-1.1225,-1.1225,-1.1225,-1.1225,-1.1225,-1.1268,-1.127,-1.127,-1.1274,-1.1278,-1.1272,-1.1278,-1.1272,-1.1266,-1.1271,-1.1271,-1.1271,-1.1269,-1.1272,-1.1272,-1.1272,-1.1272,-1.1272,-1.1272,-1.129,-1.1288,-1.1294,-1.1295,-1.1296,-1.1297,-1.1294,-1.1295,-1.1295,-1.129,-1.129,-1.1282,-1.1256,-1.1249,-1.1273,-1.1273,-1.1273,-1.1273,-1.1272,-1.1318,-1.1311,-1.1319,-1.1321,-1.1321,-1.1326,-1.1319,-1.1322,-1.1323,-1.1326,-1.1317,-1.13,-1.1295,-1.1293,-1.1287,-1.1319,-1.1319,-1.1319,-1.1319,-1.1334,-1.1332,-1.134,-1.1343,-1.1345,-1.134,-1.135,-1.1348,-1.1344,-1.1344,-1.1339,-1.1331,-1.1329,-1.1326,-1.1323,-1.1317,-1.1356,-1.1356,-1.1356,-1.1351,-1.1349,-1.1358,-1.1355,-1.1355,-1.1355,-1.1365,-1.1369,-1.1363,-1.1358,-1.1344,-1.1342,-1.133,-1.1326,-1.1319,-1.1314,-1.1304,0,0]},{"header":{"parameterUnit":"m.s-1","parameterCategory":1,"la1":30.2992,"la2":30.254,"lo1":-89.0895,"lo2":-89.0443,"dy":0.0025,"dx":0.0025,"nx":19,"ny":19,"refTime":"2026-05-05T09:00:00:Z","depth":0,"parameterNumber":3,"parameterNumberName":"V-component_of_WINDS"},"data":[0,0,0,3.8267,3.8267,3.8291,3.8291,3.8329,3.8329,0,0,0,0,0,0,0,0,0,0,0,3.8265,3.8265,3.8267,3.8268,3.8291,3.8291,3.8328,3.8329,0,0,0,0,0,0,0,0,0,0,0,3.8264,3.8265,3.8266,3.8268,3.8291,3.8291,3.8328,3.8308,0,0,0,0,0,0,0,0,0,0,3.8283,3.8286,3.8265,3.8266,3.8268,3.8291,3.8291,3.8307,3.8309,3.8321,0,3.8333,0,3.8332,3.8332,3.8332,0,0,0,3.8264,3.8285,3.8287,3.8266,3.8268,3.8291,3.8279,3.8308,3.8311,3.8324,3.8334,3.8335,3.8333,3.8332,3.8332,3.8416,3.8417,0,0,3.8262,3.8271,3.8285,3.8289,3.8286,3.8279,3.828,3.8309,3.832,3.8334,3.8336,3.8333,3.8333,3.8333,3.8416,3.8416,0,0,0,3.8261,3.8271,3.8272,3.8287,3.8291,3.8279,3.8281,3.8319,3.8319,3.8336,3.8334,3.8333,3.8333,3.8415,3.8416,3.8454,0,0,0,3.826,3.827,3.8271,3.8277,3.8291,3.8306,3.829,3.8317,3.832,3.8333,3.8333,3.8334,3.8414,3.8415,3.8452,3.8471,0,0,0,3.8261,3.827,3.8275,3.8278,3.8288,3.8305,3.8306,3.8317,3.8318,3.8332,3.8334,3.8414,3.8415,3.8449,3.8467,3.8496,0,0,0,3.8265,3.8308,3.8276,3.8323,3.8288,3.8328,3.8306,3.8335,3.8351,3.8333,3.8414,3.8416,3.8449,3.8465,3.8494,3.8524,3.8536,0,0,3.8324,3.8315,3.8342,3.8314,3.8363,3.8324,3.8378,3.8383,3.8375,3.8403,3.8405,3.8452,3.8467,3.8496,3.8603,3.8613,0,0,0,3.8364,3.8383,3.8394,3.8411,3.8417,3.8423,3.842,3.8422,3.8445,3.8392,3.847,3.8478,3.8495,3.8509,3.8517,3.8532,3.8422,3.8422,3.8422,3.8461,3.845,3.8493,3.8485,3.8501,3.8498,3.851,3.8512,3.8495,3.8514,3.8522,3.8589,3.8605,3.8611,3.8626,3.8536,3.8536,3.8536,3.8536,3.8547,3.8573,3.8551,3.8585,3.8573,3.8601,3.8599,3.8586,3.8611,3.8581,3.8595,3.8565,3.8623,3.8636,3.8539,3.8538,3.8538,3.8538,3.8537,3.861,3.8621,3.8623,3.8647,3.8666,3.8655,3.868,3.8667,3.8655,3.8669,3.8677,3.8677,3.8676,3.8674,3.8674,3.8674,3.8674,3.8675,3.8675,3.8676,3.8677,3.87,3.8711,3.872,3.873,3.8727,3.8736,3.8742,3.8731,3.8731,3.8713,3.8631,3.8611,3.8678,3.8678,3.8677,3.8677,3.8677,3.877,3.8747,3.8783,3.8792,3.8803,3.8824,3.8807,3.8825,3.883,3.8843,3.8822,3.8763,3.8753,3.8746,3.8729,3.8823,3.8823,3.8823,3.8823,3.8824,3.8818,3.8852,3.8869,3.8882,3.8871,3.8912,3.891,3.8904,3.8906,3.889,3.8867,3.8861,3.8855,3.8845,3.883,3.8947,3.8948,3.8948,3.8882,3.8877,3.8915,3.8909,3.8917,3.8924,3.8962,3.8981,3.8969,3.8952,3.8908,3.8903,3.8866,3.8854,3.8837,3.8823,3.8795,0,0]}]]